Track COSMOS 1158 now! 10-day predictions COSMOS 1158 is classified as:
1 11693U 80012C 19045.86321866 -.00000002 +00000-0 +87904-4 0 9995 2 11693 074.0200 200.8205 0027912 232.1479 280.0193 12.52305699783295